TimePDT,TemperatureF,Dew PointF,Humidity,Sea Level PressureIn,VisibilityMPH,Wind Direction,Wind SpeedMPH,Gust SpeedMPH,PrecipitationIn,Events,Conditions,WindDirDegrees,DateUTC
12:55 AM,62.6,52.0,68,29.93,10.0,Calm,Calm,-,N/A,,Clear,0,2012-10-16 07:55:00
1:55 AM,60.4,50.2,69,29.93,10.0,NE,4.6,-,N/A,,Clear,40,2012-10-16 08:55:00
2:55 AM,59.5,50.5,72,29.93,10.0,Calm,Calm,-,N/A,,Clear,0,2012-10-16 09:55:00
3:55 AM,58.6,50.7,75,29.93,10.0,NNE,3.5,-,N/A,,Clear,20,2012-10-16 10:55:00
4:55 AM,59.7,49.6,69,29.93,10.0,Calm,Calm,-,N/A,,Clear,0,2012-10-16 11:55:00
5:55 AM,57.9,49.6,74,29.94,10.0,Calm,Calm,-,N/A,,Clear,0,2012-10-16 12:55:00
6:55 AM,56.7,49.6,77,29.94,10.0,Calm,Calm,-,N/A,,Clear,0,2012-10-16 13:55:00
7:55 AM,58.6,50.5,74,29.96,10.0,ENE,5.8,-,N/A,,Clear,60,2012-10-16 14:55:00
8:55 AM,67.1,49.3,53,29.96,10.0,Calm,Calm,-,N/A,,Clear,0,2012-10-16 15:55:00
9:55 AM,68.2,49.3,51,29.96,10.0,South,3.5,-,N/A,,Clear,190,2012-10-16 16:55:00
10:55 AM,72.9,47.7,41,29.94,10.0,Calm,Calm,-,N/A,,Clear,0,2012-10-16 17:55:00
11:55 AM,78.6,46.4,32,29.92,10.0,Calm,Calm,-,N/A,,Clear,0,2012-10-16 18:55:00
12:55 PM,79.2,43.0,28,29.87,10.0,Calm,Calm,-,N/A,,Clear,0,2012-10-16 19:55:00
1:55 PM,80.6,43.3,27,29.84,10.0,Calm,Calm,-,N/A,,Clear,0,2012-10-16 20:55:00
2:22 PM,82.4,42.8,25,29.81,10.0,NNE,28.8,-,N/A,,Squalls,30,2012-10-16 21:22:00
2:24 PM,82.4,42.8,25,29.81,10.0,NW,15.0,-,N/A,,Squalls,310,2012-10-16 21:24:00
2:27 PM,82.4,42.8,25,29.84,10.0,Calm,Calm,-,N/A,,Clear,0,2012-10-16 21:27:00
2:55 PM,82.4,42.8,25,29.81,10.0,Calm,Calm,-,N/A,,Clear,0,2012-10-16 21:55:00
3:55 PM,84.4,42.3,23,29.77,10.0,Calm,Calm,-,N/A,,Clear,0,2012-10-16 22:55:00
4:55 PM,85.1,41.4,21,29.75,10.0,SSW,6.9,-,N/A,,Clear,210,2012-10-16 23:55:00
5:55 PM,83.1,42.4,24,29.75,10.0,South,4.6,-,N/A,,Clear,190,2012-10-17 00:55:00
6:55 PM,78.1,46.2,32,29.77,10.0,NE,3.5,-,N/A,,Clear,50,2012-10-17 01:55:00
7:55 PM,75.0,48.0,38,29.78,10.0,NNE,3.5,-,N/A,,Clear,20,2012-10-17 02:55:00
8:55 PM,70.3,48.2,45,29.80,10.0,Variable,3.5,-,N/A,,Clear,0,2012-10-17 03:55:00
9:55 PM,72.3,46.8,40,29.81,10.0,Calm,Calm,-,N/A,,Clear,0,2012-10-17 04:55:00
10:55 PM,68.2,48.4,49,29.82,10.0,Calm,Calm,-,N/A,,Clear,0,2012-10-17 05:55:00
11:55 PM,66.2,51.8,60,29.82,10.0,ENE,4.6,-,N/A,,Clear,60,2012-10-17 06:55:00